Beaver, WV

4:04 AM EDT on September 29, 2016 (GMT -0400)
Raleigh County Memorial

Weather History for KBKW - February, 2015

Change the Weather History Date:

Wednesday, February 18, 2015

  Actual Average Record
Temperature  
Mean Temperature 12 °F 35 °F  
Max Temperature 20 °F 44 °F 70 °F (1916)
Min Temperature 3 °F 26 °F -4 °F (1958)
Degree Days  
Heating Degree Days 53 30  
Month to date heating degree days 703 569  
Since 1 July heating degree days 3875 3713  
Cooling Degree Days 0 0  
Month to date cooling degree days 0 0  
Year to date cooling degree days 0 0  
Moisture  
Dew Point 6 °F    
Average Humidity 72    
Maximum Humidity 84    
Minimum Humidity 60    
Precipitation  
Precipitation 0.09 in 0.10 in 0.70 in (2000)
Month to date precipitation 2.12 1.75  
Year to date precipitation 4.35 4.56  
Snow  
Snow 3.40 in - - ()
Month to date snowfall 19.6  
Since 1 September snowfall 34.6  
Snow Depth 10.00 in    
Sea Level Pressure  
Sea Level Pressure 29.84 in    
Wind  
Wind Speed 11 mph (West)    
Max Wind Speed 25 mph    
Max Gust Speed 40 mph    
Visibility 4 miles    
Events Fog , Snow    
T = Trace of Precipitation, MM = Missing Value Source: NWS Daily Summary

Daily Weather History Graph

Daily Weather History Graph

Search for Another Location

Airport or City:

Trip Planner

Search our weather history database for the weather conditions in past years. The results will help you decide how hot, cold, wet, or windy it might be!

Date:

Astronomy

Feb. 18, 2015 Rise Set
Actual Time 7:10 AM EST 6:06 PM EST
Civil Twilight 6:44 AM EST 6:33 PM EST
Nautical Twilight 6:13 AM EST 7:03 PM EST
Astronomical Twilight 5:43 AM EST 7:34 PM EST
Moon 6:39 AM EST (2/18) 6:05 PM EST (2/18)
Length of Visible Light 11h 49m
Length of Day
10h 55m
Waning Crescent, 0% of the Moon is Illuminated
Feb 18
Waning Crescent
Feb 18
New
Feb 25
First Quarter
Mar 5
Full
Mar 13
Last Quarter

Hourly Weather History & Observations

Time (EST) Temp. Windchill Dew Point Humidity Pressure Visibility Wind Dir Wind Speed Gust Speed Precip Events Conditions
12:51 AM 8.1 °F - 3.0 °F 80% 30.02 in 10.0 mi Calm Calm - N/A   Clear
1:51 AM 6.1 °F - 1.0 °F 80% 30.02 in 10.0 mi Calm Calm - N/A   Clear
2:51 AM 5.0 °F -2.1 °F -0.0 °F 80% 30.01 in 10.0 mi SSW 3.5 mph - N/A   Clear
3:51 AM 5.0 °F - -0.0 °F 80% 29.98 in 10.0 mi Calm Calm - N/A   Clear
4:51 AM 7.0 °F -3.3 °F 1.9 °F 80% 29.96 in 10.0 mi South 5.8 mph - N/A   Clear
5:51 AM 9.0 °F -2.2 °F 3.0 °F 77% 29.94 in 10.0 mi SSW 6.9 mph - N/A   Scattered Clouds
6:51 AM 10.0 °F 0.4 °F 3.9 °F 76% 29.93 in 10.0 mi South 5.8 mph - N/A   Partly Cloudy
7:51 AM 10.9 °F -2.6 °F 3.9 °F 73% 29.88 in 10.0 mi SE 10.4 mph - N/A   Mostly Cloudy
8:51 AM 15.1 °F 1.1 °F 6.1 °F 68% 29.84 in 10.0 mi SSE 12.7 mph - N/A   Overcast
9:51 AM 18.0 °F 7.7 °F 9.0 °F 68% 29.82 in 2.0 mi SSE 8.1 mph - 0.00 in Snow Light Snow
9:59 AM 18.0 °F 6.9 °F 10.0 °F 71% 29.67 in 1.2 mi SSE 9.2 mph - 0.00 in Snow Light Snow
10:15 AM 17.1 °F 7.6 °F 12.0 °F 81% 29.67 in 0.8 mi South 6.9 mph - 0.01 in Snow Light Snow
10:51 AM 19.0 °F 8.2 °F 15.1 °F 85% 29.83 in 0.2 mi SW 9.2 mph - 0.02 in Fog , Snow Heavy Snow
11:04 AM 19.0 °F 5.0 °F 14.0 °F 81% 29.68 in 0.5 mi SW 15.0 mph 21.9 mph 0.01 in Snow Snow
11:16 AM 19.9 °F 7.9 °F 14.0 °F 78% 29.68 in 1.0 mi WSW 11.5 mph 21.9 mph 0.01 in Snow Light Snow
11:51 AM 19.0 °F 3.6 °F 12.9 °F 77% 29.85 in 0.8 mi West 18.4 mph 21.9 mph 0.01 in Snow Light Snow
12:04 PM 19.9 °F 5.2 °F 12.9 °F 74% 29.69 in 1.2 mi WSW 17.3 mph 28.8 mph 0.01 in Snow Light Snow
12:34 PM 19.0 °F 6.1 °F 12.9 °F 77% 29.69 in 0.8 mi West 12.7 mph 26.5 mph 0.01 in Snow Light Snow
12:51 PM 19.0 °F 4.0 °F 12.0 °F 74% 29.85 in 0.8 mi West 17.3 mph 34.5 mph 0.01 in Snow Light Snow
12:54 PM 19.0 °F 2.7 °F 10.9 °F 71% 29.69 in 1.2 mi West 20.7 mph 34.5 mph 0.00 in Snow Light Snow
1:23 PM 19.0 °F 5.6 °F 10.0 °F 68% 29.69 in 2.0 mi West 13.8 mph 24.2 mph 0.00 in Snow Light Snow
1:27 PM 18.0 °F 3.1 °F 10.9 °F 74% 29.69 in 0.8 mi West 16.1 mph 25.3 mph 0.00 in Snow Light Snow
1:43 PM 19.0 °F 2.4 °F 9.0 °F 65% 29.68 in 2.0 mi West 21.9 mph 28.8 mph 0.00 in Snow Light Snow
1:51 PM 19.0 °F 4.5 °F 9.0 °F 65% 29.85 in 3.0 mi West 16.1 mph 27.6 mph 0.00 in Snow Light Snow
2:06 PM 19.0 °F 4.5 °F 8.1 °F 62% 29.68 in 5.0 mi WNW 16.1 mph 27.6 mph 0.00 in Snow Light Snow
2:10 PM 19.0 °F 2.7 °F 8.1 °F 62% 29.69 in 2.5 mi West 20.7 mph 27.6 mph 0.00 in Snow Light Snow
2:19 PM 19.0 °F 4.0 °F 10.0 °F 68% 29.69 in 2.0 mi West 17.3 mph 27.6 mph 0.00 in Snow Light Snow
2:29 PM 19.0 °F 3.6 °F 10.0 °F 68% 29.69 in 5.0 mi West 18.4 mph 26.5 mph 0.00 in Snow Light Snow
2:33 PM 19.0 °F 3.2 °F 10.0 °F 68% 29.70 in 1.2 mi West 19.6 mph 27.6 mph 0.00 in Snow Light Snow
2:36 PM 18.0 °F 1.3 °F 10.9 °F 74% 29.70 in 0.2 mi West 20.7 mph 29.9 mph 0.00 in Snow Heavy Snow
2:51 PM 18.0 °F 3.1 °F 12.0 °F 78% 29.88 in 0.5 mi West 16.1 mph 28.8 mph 0.00 in Snow Snow
2:58 PM 19.0 °F 3.2 °F 10.9 °F 71% 29.71 in 2.0 mi West 19.6 mph 26.5 mph 0.00 in Snow Light Snow
3:06 PM 19.0 °F 5.0 °F 10.0 °F 68% 29.71 in 3.0 mi WNW 15.0 mph 26.5 mph 0.00 in Snow Light Snow
3:08 PM 18.0 °F 1.7 °F 10.0 °F 71% 29.71 in 2.5 mi WNW 19.6 mph 31.1 mph 0.00 in Snow Light Snow
3:16 PM 17.1 °F -0.3 °F 9.0 °F 71% 29.72 in 0.8 mi WNW 21.9 mph 31.1 mph 0.00 in Snow Light Snow
3:48 PM 15.8 °F -0.2 °F 8.6 °F 73% 29.73 in 2.0 mi WNW 17.3 mph 25.3 mph 0.00 in Snow Light Snow
3:51 PM 16.0 °F 0.6 °F 8.1 °F 71% 29.90 in 2.5 mi WNW 16.1 mph 23.0 mph 0.00 in Snow Light Snow
3:59 PM 16.0 °F 1.7 °F 8.1 °F 71% 29.73 in 2.0 mi West 13.8 mph 24.2 mph 0.00 in Snow Light Snow
4:08 PM 16.0 °F 0.6 °F 7.0 °F 68% 29.73 in 8.0 mi West 16.1 mph 24.2 mph 0.00 in   Overcast
4:20 PM 16.0 °F -1.3 °F 5.0 °F 62% 29.74 in 1.5 mi WNW 20.7 mph 39.1 mph 0.00 in Snow Light Snow
4:33 PM 15.1 °F -1.1 °F 3.0 °F 59% 29.75 in 3.0 mi West 17.3 mph 26.5 mph 0.00 in Snow Light Snow
4:51 PM 16.0 °F 1.7 °F 3.0 °F 57% 29.93 in 10.0 mi WNW 13.8 mph 25.3 mph 0.00 in   Overcast
5:26 PM 14.0 °F -2.5 °F 3.9 °F 64% 29.77 in 1.8 mi NW 17.3 mph 25.3 mph 0.00 in Snow Light Snow
5:31 PM 12.9 °F -4.9 °F 6.1 °F 74% 29.77 in 0.8 mi NW 19.6 mph 26.5 mph 0.00 in Snow Light Snow
5:51 PM 12.9 °F -3.9 °F 1.9 °F 62% 29.96 in 3.0 mi WNW 17.3 mph 29.9 mph 0.00 in Snow Light Snow
5:58 PM 12.9 °F -2.8 °F 1.0 °F 59% 29.79 in 7.0 mi NW 15.0 mph 29.9 mph 0.00 in Snow Light Snow
6:12 PM 12.0 °F -3.4 °F 1.9 °F 64% 29.80 in 2.5 mi WNW 13.8 mph 25.3 mph 0.00 in Snow Light Snow
6:29 PM 12.0 °F -4.5 °F 1.9 °F 64% 29.81 in 5.0 mi WNW 16.1 mph 21.9 mph 0.00 in Snow Light Snow
6:51 PM 10.9 °F -3.4 °F 3.9 °F 73% 30.01 in 5.0 mi NW 11.5 mph - 0.00 in Snow Light Snow
7:03 PM 10.9 °F -3.4 °F 3.9 °F 73% 29.83 in 2.5 mi NW 11.5 mph - 0.00 in Snow Light Snow
7:10 PM 10.9 °F -2.6 °F 1.0 °F 64% 29.83 in 9.0 mi NW 10.4 mph 19.6 mph 0.00 in   Overcast
7:39 PM 10.0 °F -3.7 °F 1.9 °F 70% 29.85 in 2.5 mi NW 10.4 mph 20.7 mph 0.00 in Snow Light Snow
7:48 PM 8.6 °F -6.3 °F 3.2 °F 79% 29.85 in 1.2 mi NW 11.5 mph - 0.00 in Snow Light Snow
7:51 PM 9.0 °F -5.1 °F 3.9 °F 80% 30.04 in 1.5 mi NW 10.4 mph - 0.00 in Snow Light Snow
8:25 PM 9.0 °F -5.9 °F 3.9 °F 80% 29.86 in 0.8 mi WNW 11.5 mph - 0.01 in Snow Light Snow
8:41 PM 8.1 °F -9.6 °F 3.0 °F 80% 29.87 in 0.5 mi NW 16.1 mph 26.5 mph 0.01 in Snow Snow
8:51 PM 8.1 °F -8.4 °F 1.9 °F 76% 30.04 in 0.8 mi WNW 13.8 mph 27.6 mph 0.02 in Snow Light Snow
8:57 PM 8.1 °F -9.6 °F -0.0 °F 70% 29.87 in 2.0 mi WNW 16.1 mph 31.1 mph 0.00 in Snow Light Snow
9:10 PM 7.0 °F -11.0 °F -2.9 °F 64% 29.88 in 6.0 mi WNW 16.1 mph 25.3 mph 0.00 in Snow Blowing Snow
9:17 PM 7.0 °F -8.3 °F -2.9 °F 64% 29.88 in 8.0 mi WNW 11.5 mph 24.2 mph 0.00 in   Mostly Cloudy
9:51 PM 7.0 °F -9.8 °F -6.0 °F 55% 30.07 in 7.0 mi WNW 13.8 mph 29.9 mph 0.00 in   Partly Cloudy
10:51 PM 6.1 °F -6.8 °F -4.0 °F 63% 30.08 in 7.0 mi WNW 8.1 mph 18.4 mph 0.00 in Snow Light Snow
10:59 PM 6.1 °F -10.9 °F -2.9 °F 67% 29.91 in 4.0 mi NW 13.8 mph 19.6 mph 0.00 in Snow Light Snow
11:05 PM 5.0 °F -13.0 °F -2.0 °F 73% 29.91 in 1.8 mi NW 15.0 mph 19.6 mph 0.00 in Snow Light Snow
11:15 PM 5.0 °F -11.6 °F -0.0 °F 80% 29.91 in 0.5 mi NW 12.7 mph - 0.00 in Snow Snow
11:25 PM 5.0 °F -10.8 °F -0.0 °F 80% 29.91 in 0.5 mi NW 11.5 mph 18.4 mph 0.01 in Snow Snow
11:51 PM 3.9 °F -13.7 °F -0.9 °F 80% 30.09 in 0.5 mi NW 13.8 mph - 0.02 in Snow Snow